Location: Huesca
(42.1318°N, 0.4078°W)
Time: 19:40:09
(UTC+02:00)

YUBILEINY - Pass Details

Date: 18 April 2026
Orbit: 1477 x 1509 km, 82.5° (Epoch: 17 May)

Event Time Altitude Azimuth Distance (km) Brightness Sun altitude
Rises 02:05:39 0° 350° (N) 4,609 ? -37.1°
Reaches altitude 10° 02:08:31 10° 349° (NNW) 3,627 ? -37.1°
Enters shadow 02:16:36 72° 298° (WNW) 1,549 ? -37.0°
